This is the latest recevied weather packets stored in our database for station/object XE2AD-5. If no packets are shown the sender has not sent any weather packets the latest 10 day(s).
| Time | Temp. | Humidity | Pressure | Rain* | Wind** | Luminosity | Snow |
|---|---|---|---|---|---|---|---|
| 1788344914 | 22.78° C | 54% | 813 hPa | - | - | - | - |
| 1788341614 | 22.78° C | 53% | 813.1 hPa | - | - | - | - |
| 1788338313 | 23.33° C | 53% | 813.2 hPa | - | - | - | - |
| 1788335013 | 23.33° C | 53% | 813.4 hPa | - | - | - | - |
| 1788331712 | 23.89° C | 52% | 813.6 hPa | - | - | - | - |
| 1788328412 | 23.89° C | 52% | 813.8 hPa | - | - | - | - |
| 1788321812 | 24.44° C | 51% | 813.5 hPa | - | - | - | - |
| 1788298710 | 23.89° C | 54% | 809.5 hPa | - | - | - | - |
| 1788295410 | 23.33° C | 54% | 810.3 hPa | - | - | - | - |
| 1788292109 | 22.78° C | 53% | 811 hPa | - | - | - | - |
| 1788285509 | 22.22° C | 54% | 812.2 hPa | - | - | - | - |
| 1788282209 | 22.22° C | 54% | 812.4 hPa | - | - | - | - |
| 1788278908 | 22.22° C | 54% | 812.6 hPa | - | - | - | - |
| 1788275608 | 22.22° C | 54% | 812.5 hPa | - | - | - | - |
| 1788272308 | 22.22° C | 55% | 812.5 hPa | - | - | - | - |
| 1788269008 | 22.78° C | 54% | 811.9 hPa | - | - | - | - |
| 1788265708 | 22.78° C | 54% | 811.7 hPa | - | - | - | - |
| 1788262407 | 22.78° C | 53% | 811.6 hPa | - | - | - | - |
| 1788259107 | 23.33° C | 52% | 811.8 hPa | - | - | - | - |
| 1788255807 | 23.33° C | 52% | 812 hPa | - | - | - | - |
| 1788252507 | 23.89° C | 52% | 812.4 hPa | - | - | - | - |
| 1788249207 | 23.89° C | 51% | 812.6 hPa | - | - | - | - |
| 1788245907 | 24.44° C | 50% | 813 hPa | - | - | - | - |
| 1788242606 | 24.44° C | 49% | 812.9 hPa | - | - | - | - |
| 1788239306 | 24.44° C | 47% | 812.6 hPa | - | - | - | - |
* Rain since midnight (hover to see other rain measurements)
** Current wind speed in m/s (hover to see current wind gust speed)